Cheraw, SC

1:54 AM EST on January 23, 2018 (GMT -0500)
Cheraw

Weather History for KCQW - March, 2013

Change the Weather History Date:

Friday, March 8, 2013

  Actual Average (KFLO) Record (KFLO)
Temperature  
Mean Temperature 42 °F -  
Max Temperature 55 °F 62 °F 90 °F (1974)
Min Temperature 30 °F 39 °F 26 °F (1960)
Degree Days  
Heating Degree Days 22    
Moisture  
Dew Point 22 °F    
Average Humidity 47    
Maximum Humidity 75    
Minimum Humidity 25    
Precipitation  
Precipitation 0.00 in - - ()
Sea Level Pressure  
Sea Level Pressure 30.25 in    
Wind  
Wind Speed - (North)    
Max Wind Speed -    
Max Gust Speed -    
Visibility 10 miles    
Events      
Averages and records for this station are not official NWS values.
T = Trace of Precipitation, MM = Missing Value Source: NWS Daily Summary

Daily Weather History Graph

Daily Weather History Graph

Search for Another Location

Airport or City:

Trip Planner

Search our weather history database for the weather conditions in past years. The results will help you decide how hot, cold, wet, or windy it might be!

Date:

Astronomy

Mar. 08, 2013 Rise Set
Actual Time 6:39 AM EST 6:21 PM EST
Civil Twilight 6:14 AM EST 6:47 PM EST
Nautical Twilight 5:45 AM EST 7:16 PM EST
Astronomical Twilight 5:15 AM EST 7:45 PM EST
Moon 4:16 AM EST (3/8) 3:21 PM EST (3/8)
Length of Visible Light 12h 32m
Length of Day
11h 42m
Waning Crescent, 12% of the Moon is Illuminated
Mar 8
Waning Crescent
Mar 11
New
Mar 19
First Quarter
Mar 27
Full
Apr 3
Last Quarter

Hourly Weather History & Observations

Time (EST) Temp. Dew Point Humidity Pressure Visibility Wind Dir Wind Speed Gust Speed Precip Events Conditions
12:15 AM 37.4 °F 23.0 °F 56% 30.25 in 10.0 mi North - - N/A   Clear
12:35 AM 35.6 °F 23.0 °F 60% 30.25 in 10.0 mi North - - N/A   Clear
12:55 AM 35.6 °F 23.0 °F 60% 30.25 in 10.0 mi North - - N/A   Clear
1:15 AM 33.8 °F 23.0 °F 65% 30.25 in 10.0 mi North - - N/A   Clear
1:35 AM 33.8 °F 23.0 °F 65% 30.25 in 10.0 mi North - - N/A   Clear
1:55 AM 32.0 °F 23.0 °F 69% 30.25 in 10.0 mi North - - N/A   Clear
2:15 AM 32.0 °F 23.0 °F 69% 30.24 in 10.0 mi North - - N/A   Clear
2:35 AM 32.0 °F 23.0 °F 69% 30.23 in 10.0 mi North - - N/A   Clear
2:55 AM 32.0 °F 23.0 °F 69% 30.23 in 10.0 mi North - - N/A   Clear
3:15 AM 32.0 °F 23.0 °F 69% 30.23 in 10.0 mi North - - N/A   Clear
3:35 AM 32.0 °F 23.0 °F 69% 30.24 in 10.0 mi North - - N/A   Clear
3:55 AM 32.0 °F 23.0 °F 69% 30.23 in 10.0 mi North - - N/A   Clear
4:15 AM 32.0 °F 23.0 °F 69% 30.24 in 10.0 mi North - - N/A   Clear
4:35 AM 32.0 °F 23.0 °F 69% 30.24 in 10.0 mi North - - N/A   Clear
4:55 AM 32.0 °F 23.0 °F 69% 30.24 in 10.0 mi North - - N/A   Clear
5:15 AM 32.0 °F 23.0 °F 69% 30.25 in 10.0 mi North - - N/A   Clear
5:35 AM 32.0 °F 23.0 °F 69% 30.26 in 10.0 mi North - - N/A   Clear
5:55 AM 32.0 °F 23.0 °F 69% 30.26 in 10.0 mi North - - N/A   Unknown
6:15 AM 30.2 °F 23.0 °F 75% 30.26 in 10.0 mi North - - N/A   Clear
6:35 AM 32.0 °F 23.0 °F 69% 30.27 in 10.0 mi North - - N/A   Clear
6:55 AM 32.0 °F 23.0 °F 69% 30.27 in 10.0 mi North - - N/A   Clear
7:15 AM 32.0 °F 23.0 °F 69% 30.28 in 10.0 mi North - - N/A   Clear
7:35 AM 33.8 °F 23.0 °F 65% 30.28 in 10.0 mi North - - N/A   Clear
7:55 AM 35.6 °F 23.0 °F 60% 30.29 in 10.0 mi North - - N/A   Clear
8:15 AM 37.4 °F 23.0 °F 56% 30.30 in 10.0 mi North - - N/A   Clear
8:35 AM 39.2 °F 23.0 °F 52% 30.30 in 10.0 mi North - - N/A   Clear
8:55 AM 41.0 °F 23.0 °F 49% 30.31 in 10.0 mi North - - N/A   Clear
9:15 AM 41.0 °F 23.0 °F 49% 30.31 in 10.0 mi North - - N/A   Clear
9:35 AM 42.8 °F 21.2 °F 42% 30.31 in 10.0 mi North - - N/A   Clear
9:55 AM 44.6 °F 23.0 °F 43% 30.30 in 10.0 mi North - - N/A   Clear
10:15 AM 46.4 °F 23.0 °F 40% 30.30 in 10.0 mi North - - N/A   Clear
10:35 AM 46.4 °F 23.0 °F 40% 30.29 in 10.0 mi North - - N/A   Clear
10:55 AM 46.4 °F 21.2 °F 37% 30.28 in 10.0 mi North - - N/A   Clear
11:15 AM 48.2 °F 21.2 °F 34% 30.28 in 10.0 mi North - - N/A   Clear
11:35 AM 48.2 °F 19.4 °F 32% 30.28 in 10.0 mi North - - N/A   Clear
11:55 AM 48.2 °F 21.2 °F 34% 30.27 in 10.0 mi North - - N/A   Clear
12:15 PM 50.0 °F 19.4 °F 30% 30.26 in 10.0 mi North - - N/A   Clear
12:35 PM 50.0 °F 21.2 °F 32% 30.25 in 10.0 mi North - - N/A   Clear
12:55 PM 50.0 °F 21.2 °F 32% 30.24 in 10.0 mi North - - N/A   Clear
1:15 PM 50.0 °F 19.4 °F 30% 30.22 in 10.0 mi North - - N/A   Clear
1:35 PM 51.8 °F 21.2 °F 30% 30.21 in 10.0 mi North - - N/A   Clear
1:55 PM 53.6 °F 19.4 °F 26% 30.20 in 10.0 mi North - - N/A   Clear
2:15 PM 53.6 °F 19.4 °F 26% 30.20 in 10.0 mi North - - N/A   Clear
2:35 PM 53.6 °F 21.2 °F 28% 30.20 in 10.0 mi North - - N/A   Clear
2:55 PM 53.6 °F 21.2 °F 28% 30.20 in 10.0 mi North - - N/A   Clear
3:15 PM 55.4 °F 21.2 °F 26% 30.20 in 10.0 mi North - - N/A   Clear
3:35 PM 55.4 °F 21.2 °F 26% 30.19 in 10.0 mi North - - N/A   Clear
3:55 PM 55.4 °F 19.4 °F 25% 30.19 in 10.0 mi North - - N/A   Clear
4:15 PM 55.4 °F 19.4 °F 25% 30.19 in 10.0 mi North - - N/A   Clear
4:35 PM 55.4 °F 19.4 °F 25% 30.19 in 10.0 mi North - - N/A   Clear
4:55 PM 55.4 °F 19.4 °F 25% 30.19 in 10.0 mi North - - N/A   Clear
5:15 PM 55.4 °F 19.4 °F 25% 30.19 in 10.0 mi North - - N/A   Clear
5:35 PM 53.6 °F 19.4 °F 26% 30.19 in 10.0 mi North - - N/A   Clear
5:55 PM 53.6 °F 19.4 °F 26% 30.19 in 10.0 mi North - - N/A   Clear
6:15 PM 50.0 °F 21.2 °F 32% 30.20 in 10.0 mi North - - N/A   Clear
6:35 PM 50.0 °F 21.2 °F 32% 30.20 in 10.0 mi North - - N/A   Clear
6:55 PM 50.0 °F 19.4 °F 30% 30.21 in 10.0 mi North - - N/A   Clear
7:15 PM 44.6 °F 23.0 °F 43% 30.21 in 10.0 mi North - - N/A   Clear
7:35 PM 48.2 °F 21.2 °F 34% 30.21 in 10.0 mi North - - N/A   Clear
7:55 PM 42.8 °F 23.0 °F 46% 30.22 in 10.0 mi North - - N/A   Clear
8:15 PM 44.6 °F 23.0 °F 43% 30.22 in 10.0 mi North - - N/A   Clear
8:35 PM 41.0 °F 24.8 °F 53% 30.22 in 10.0 mi North - - N/A   Clear
8:55 PM 44.6 °F 23.0 °F 43% 30.23 in 10.0 mi North - - N/A   Clear
9:15 PM 44.6 °F 21.2 °F 39% 30.24 in 10.0 mi North - - N/A   Clear
9:35 PM 46.4 °F 21.2 °F 37% 30.26 in 10.0 mi North - - N/A   Clear
9:55 PM 44.6 °F 21.2 °F 39% 30.28 in 10.0 mi North - - N/A   Clear
10:15 PM 44.6 °F 21.2 °F 39% 30.29 in 10.0 mi North - - N/A   Clear
10:35 PM 44.6 °F 21.2 °F 39% 30.30 in 10.0 mi North - - N/A   Clear
10:55 PM 42.8 °F 23.0 °F 46% 30.30 in 10.0 mi North - - N/A   Clear
11:15 PM 41.0 °F 23.0 °F 49% 30.30 in 10.0 mi North - - N/A   Clear
11:35 PM 41.0 °F 23.0 °F 49% 30.30 in 10.0 mi North - - N/A   Clear
11:55 PM 41.0 °F 23.0 °F 49% 30.29 in 10.0 mi North - - N/A   Clear